Regional Weather Roundup
Issued by NWS

Home | Current Version | Previous Version | Text Only | Print | Product List | Glossary Off
Versions: 1 2 3 4 5 6 7 8 9 10 11 12 13 14 15 16 17 18 19 20 21 22 23 24 25 26 27 28 29 30 31 32 33 34 35 36 37 38 39 40 41 42 43 44 45 46 47 48 49 50

000
ASUS43 KLMK 281702
RWRKY
KENTUCKY REGIONAL WEATHER ROUNDUP
NATIONAL WEATHER SERVICE LOUISVILLE KY
100 PM EDT FRI AUG 28 2015

NOTE "FAIR" INDICATES FEW OR NO CLOUDS BELOW 12,000 FEET
WITH NO SIGNIFICANT WEATHER AND/OR OBSTRUCTIONS TO VISIBILITY.

KYZ001>023-026-027-061>063-070>075-281800-
WESTERN AND SOUTH CENTRAL KENTUCKY

CITY           SKY/WX    TMP DP  RH WIND       PRES   REMARKS
PADUCAH        SUNNY     81  59  47 VRB3      30.12S
HENDERSON      MOSUNNY   75  57  53 SE6       30.13F
OWENSBORO      SUNNY     79  60  51 SE8       30.15F
HOPKINSVILLE   SUNNY     82  62  51 E6        30.12F
BOWLING GREEN  MOSUNNY   82  61  48 E8        30.15F
GLASGOW        MOSUNNY   82  60  48 CALM      30.16S
$$

KYZ024-025-028>034-038-045-046-053-281800-
NORTH CENTRAL KENTUCKY

CITY           SKY/WX    TMP DP  RH WIND       PRES   REMARKS
LOUISVILLE/SDF PTSUNNY   80  57  45 CALM      30.16F
LOUISVILLE/LOU SUNNY     79  57  46 VRB6      30.17F
FORT KNOX      SUNNY     77  59  54 E9        30.15F
$$

KYZ035>037-039>044-047>052-055>060-089>105-281800-
NORTHEAST KENTUCKY

CITY           SKY/WX    TMP DP  RH WIND       PRES   REMARKS
LEXINGTON      SUNNY     79  57  46 S7        30.19F
COVINGTON      MOSUNNY   76  54  46 E3        30.19F
FRANKFORT      SUNNY     77  57  50 E7        30.17F
$$

KYZ054-064>069-076>088-106>120-281800-
SOUTHEAST KENTUCKY

CITY           SKY/WX    TMP DP  RH WIND       PRES   REMARKS
JACKSON        SUNNY     77  63  61 SE3       30.21F
LONDON         SUNNY     80  60  50 SW6       30.19F
SOMERSET       NOT AVBL
MIDDLESBORO    MOSUNNY   80  63  56 S7        30.20F
MONTICELLO     SUNNY     82  67  60 CALM      30.20F
$$



USA.gov is the U.S. government's official web portal to all federal, state and local government web resources and services.